Regional Weather Roundup
Issued by NWS Little Rock, AR

Home | Current Version | Previous Version | Graphics & Text | Print | Product List | Glossary On
Versions: 1 2 3 4 5 6 7 8 9 10 11 12 13 14 15 16 17 18 19 20 21 22 23 24 25 26 27
000
ASUS44 KLZK 292205
RWRLZK

WEATHER ROUNDUP FOR ARKANSAS
NATIONAL WEATHER SERVICE LITTLE ROCK AR
500 PM CDT SUN MAY 29 2016

NOTE: "FAIR" INDICATES FEW OR NO CLOUDS BELOW 12,000 FEET WITH NO
SIGNIFICANT WEATHER AND/OR OBSTRUCTIONS TO VISIBILITY.

ARZ001-003-010-029-292300-
NORTHWEST ARKANSAS

CITY           SKY/WX    TMP DP  RH WIND       PRES   REMARKS
FAYETTEVILLE   SUNNY     82  64  54 E5        30.08F
FORT SMITH     MOSUNNY   85  67  54 E9        30.04F HX  87
HARRISON       MOSUNNY   83  62  49 NE6       30.12F
BENTONVILLE    CLOUDY    81  63  54 S8        30.10F
ROGERS           N/A     80  65  59 SE9       30.10F
SILOAM SPGS    MOSUNNY   79  63  57 SE7       30.09F
HIGHFILL       PTSUNNY   81  67  62 CALM      30.08F
SPRINGDALE     MOSUNNY   82  63  51 E6        30.11F
$$

ARZ004-005-016-292300-
NORTH CENTRAL ARKANSAS

CITY           SKY/WX    TMP DP  RH WIND       PRES   REMARKS
BATESVILLE     CLOUDY    81  68  65 CALM      30.08S
FLIPPIN        MOSUNNY  N/A N/A N/A SE3       30.07S
MTN HOME       MOSUNNY   82  62  50 W3        30.09F
$$

ARZ040-041-292300-
WEST CENTRAL ARKANSAS

CITY           SKY/WX    TMP DP  RH WIND       PRES   REMARKS
MENA           CLOUDY    82  64  54 E7        30.08F
MOUNT IDA      CLOUDY    74  67  78 N5        30.04F
$$

ARZ009-017-025-026-028-292300-
NORTHEAST ARKANSAS

CITY           SKY/WX    TMP DP  RH WIND       PRES   REMARKS
CORNING        LGT RAIN  86  64  48 W3        30.06F HX  87
JONESBORO      MOSUNNY   85  63  47 W6        30.06F HX  86
NEWPORT        CLOUDY    84  67  56 CALM      30.08F HX  86
WALNUT RIDGE   SUNNY     86  61  42 NW8       30.06F HX  86
BLYTHEVILLE    PTSUNNY   87  69  54 N5        30.05F HX  91
$$

ARZ022-023-033-042-044-292300-
CENTRAL ARKANSAS

CITY           SKY/WX    TMP DP  RH WIND       PRES   REMARKS
LITTLE ROCK    LGT RAIN  71  65  81 S6        30.10F
N LITTLE ROCK    N/A     72  68  87 W3        30.08S
JACKSONVILLE   DRIZZLE   76  72  87 SE3       30.09R
SEARCY         CLOUDY    79  73  83 SW3       30.09S
HOT SPRINGS    LGT RAIN  69  65  86 NE12      30.09F
RUSSELLVILLE   PTSUNNY   84  67  56 SE3       30.06F HX  86
CLINTON        FAIR      81  72  74 CALM      30.09F
$$

ARZ036-292300-
EAST ARKANSAS

CITY           SKY/WX    TMP DP  RH WIND       PRES   REMARKS
WEST MEMPHIS   CLOUDY    85  68  56 CALM      30.04F HX  88
$$

ARZ050-053-066-070-073-292300-
SOUTHWEST ARKANSAS

CITY           SKY/WX    TMP DP  RH WIND       PRES   REMARKS
ARKADELPHIA    FAIR      73  66  78 NE7       30.09F
CAMDEN         CLOUDY    81  57  44 N16G24    30.09R
TEXARKANA      CLOUDY    88  70  55 E5        30.04F HX  93
EL DORADO      SUNNY     89  68  49 VRB3      30.05F HX  93
DE QUEEN       CLOUDY    81  66  60 E7        30.02F
$$

ARZ056-057-069-292300-
SOUTHEAST ARKANSAS

CITY           SKY/WX    TMP DP  RH WIND       PRES   REMARKS
PINE BLUFF     TSTM      68  66  93 NW12G22   30.15R
STUTTGART      CLOUDY    82  66  57 NW7       30.08S HX  85
MONTICELLO     CLOUDY    90  71  53 E3        30.05S HX  96

$$






USA.gov is the U.S. government's official web portal to all federal, state and local government web resources and services.